Simultaneous Nadir Overpasses (SNOs) Predictions

Prediction of SNOs between GOES-16 and METOP-C Satellite Orbit:

Table of predicted SNOs for the next 14.0 days since TLE Epoch: 3/18/2023
Index Date Time (GOES-16) GOES-16 Lat,Lon METOP-C Lat,Lon Distance(km) Time Diff (sec)
1 03/18/2023 02:39:39 -0.05, -75.20 -0.44, -76.87 191.36 80
2 03/19/2023 02:16:19 -0.05, -75.20 0.67, -71.87 378.69 80
3 03/20/2023 14:37:50 0.06, -75.23 0.31, -76.44 137.62 80
4 03/21/2023 14:14:30 0.05, -75.24 -0.81, -71.44 433.07 80
5 03/23/2023 02:36:07 -0.06, -75.24 -0.24, -76.02 88.98 80
6 03/24/2023 02:12:47 -0.05, -75.26 0.88, -71.02 482.09 80
7 03/25/2023 14:34:18 0.06, -75.30 0.10, -75.59 33.19 80
8 03/28/2023 02:29:55 -0.05, -75.32 0.01, -75.18 17.30 80
9 03/29/2023 14:51:25 0.05, -75.37 1.02, -79.73 497.61 80
10 03/30/2023 14:28:04 0.05, -75.39 -0.11, -74.74 74.26 80
